C6025 KPIE-KLAL

Flight info

Callsign C6025
Flight time N/A
Altitude VFR/010
Route
Aircraft H60/M-VGD/A

Departure

Time N/A
Airport St. Petersburg Clearwater International Airport (KPIE)

Arrival

Time 2026-04-26 21:56
Airport Lakeland Linder International Airport (KLAL)
Time Latitude Longitude Altitude Speed Heading
2026-04-26 21:15 27.88018 -82.20927 1377 ft 106 kts 35°
2026-04-26 21:15 27.88824 -82.20460 704 ft 83 kts 18°
2026-04-26 21:15 27.89269 -82.20301 1073 ft 53 kts 11°
2026-04-26 21:16 27.89840 -82.20146 974 ft 117 kts
2026-04-26 21:16 27.90404 -82.20021 832 ft 122 kts
2026-04-26 21:16 27.91261 -82.19850 780 ft 134 kts
2026-04-26 21:16 27.92223 -82.19744 798 ft 140 kts 360°
2026-04-26 21:17 27.93182 -82.19812 1064 ft 139 kts 351°
2026-04-26 21:17 27.94136 -82.19942 558 ft 137 kts 353°
2026-04-26 21:17 27.94985 -82.19700 464 ft 119 kts 12°
2026-04-26 21:17 27.95610 -82.19464 581 ft 99 kts 15°
2026-04-26 21:18 27.96306 -82.19155 504 ft 114 kts 15°
2026-04-26 21:18 27.97062 -82.18832 485 ft 107 kts 17°
2026-04-26 21:18 27.97852 -82.18529 509 ft 134 kts 17°
2026-04-26 21:18 27.98757 -82.18202 573 ft 151 kts 13°
2026-04-26 21:19 27.99709 -82.17852 651 ft 135 kts
2026-04-26 21:19 28.00490 -82.17534 631 ft 114 kts 12°
2026-04-26 21:19 28.01289 -82.17301 692 ft 131 kts
2026-04-26 21:19 28.02130 -82.16853 623 ft 129 kts 21°
2026-04-26 21:20 28.02941 -82.16279 486 ft 147 kts 38°
2026-04-26 21:20 28.03686 -82.15532 580 ft 147 kts 34°
2026-04-26 21:20 28.04465 -82.14820 528 ft 147 kts 35°
2026-04-26 21:20 28.05265 -82.14140 643 ft 145 kts 35°
2026-04-26 21:21 28.05926 -82.13499 710 ft 137 kts 66°
2026-04-26 21:21 28.06474 -82.12649 636 ft 138 kts 41°
2026-04-26 21:21 28.07060 -82.11864 384 ft 126 kts 43°
2026-04-26 21:21 28.07609 -82.11097 479 ft 124 kts 46°
2026-04-26 21:22 28.08201 -82.10360 394 ft 126 kts 46°
2026-04-26 21:22 28.08827 -82.09547 329 ft 140 kts 43°
2026-04-26 21:22 28.09453 -82.08802 612 ft 129 kts 44°
2026-04-26 21:23 28.10279 -82.07340 1811 ft 90 kts 59°
2026-04-26 21:23 28.10548 -82.06656 1120 ft 100 kts 60°
2026-04-26 21:23 28.10877 -82.05981 904 ft 94 kts 57°
2026-04-26 21:23 28.11312 -82.05522 689 ft 83 kts 35°
2026-04-26 21:24 28.11761 -82.05060 673 ft 99 kts 35°
2026-04-26 21:24 28.12262 -82.04469 540 ft 108 kts 42°
2026-04-26 21:24 28.12628 -82.03757 515 ft 101 kts 53°
2026-04-26 21:24 28.12936 -82.03074 576 ft 93 kts 55°
2026-04-26 21:25 28.13243 -82.02304 450 ft 117 kts 58°
2026-04-26 21:25 28.13604 -82.01437 694 ft 136 kts 60°
2026-04-26 21:25 28.14160 -82.00489 407 ft 137 kts 51°
2026-04-26 21:25 28.14721 -81.99681 632 ft 133 kts 43°
2026-04-26 21:26 28.15427 -81.98943 556 ft 149 kts 37°
2026-04-26 21:26 28.16159 -81.98168 545 ft 137 kts 36°
2026-04-26 21:26 28.16890 -81.97480 836 ft 139 kts 35°
2026-04-26 21:26 28.17673 -81.96776 915 ft 150 kts 34°
2026-04-26 21:27 28.18517 -81.96049 826 ft 152 kts 33°
2026-04-26 21:27 28.19364 -81.95378 900 ft 145 kts 30°
2026-04-26 21:27 28.20187 -81.94783 1085 ft 139 kts 27°
2026-04-26 21:27 28.21010 -81.94242 1347 ft 134 kts 24°
2026-04-26 21:28 28.21793 -81.93647 1593 ft 142 kts 33°
2026-04-26 21:28 28.22418 -81.92702 1483 ft 159 kts 56°
2026-04-26 21:28 28.22683 -81.91518 635 ft 142 kts 92°
2026-04-26 21:28 28.22255 -81.90877 494 ft 88 kts 176°
2026-04-26 21:29 28.21868 -81.90927 604 ft 38 kts 200°
2026-04-26 21:29 28.21711 -81.90458 721 ft 82 kts 126°
2026-04-26 21:29 28.21426 -81.89782 1208 ft 115 kts 127°
2026-04-26 21:29 28.20878 -81.88972 1002 ft 137 kts 133°
2026-04-26 21:30 28.20310 -81.88154 1010 ft 130 kts 132°
2026-04-26 21:30 28.19767 -81.87345 1109 ft 129 kts 132°
2026-04-26 21:30 28.19211 -81.86535 1196 ft 131 kts 133°
2026-04-26 21:30 28.18647 -81.85721 1246 ft 132 kts 134°
2026-04-26 21:31 28.18079 -81.84904 1270 ft 132 kts 134°
2026-04-26 21:31 28.17508 -81.84086 1271 ft 133 kts 134°
2026-04-26 21:31 28.16937 -81.83275 1273 ft 134 kts 134°
2026-04-26 21:31 28.16346 -81.82442 1248 ft 134 kts 134°
2026-04-26 21:32 28.15762 -81.81630 1211 ft 135 kts 134°
2026-04-26 21:32 28.15161 -81.80804 1173 ft 136 kts 135°
2026-04-26 21:32 28.14546 -81.79968 757 ft 142 kts 134°
2026-04-26 21:32 28.13803 -81.79350 635 ft 119 kts 165°
2026-04-26 21:33 28.13107 -81.79527 815 ft 89 kts 204°
2026-04-26 21:33 28.12576 -81.79601 1497 ft 84 kts 197°
2026-04-26 21:33 28.12085 -81.78991 1643 ft 124 kts 141°
2026-04-26 21:33 28.11672 -81.78178 1607 ft 121 kts 137°
2026-04-26 21:34 28.11039 -81.77629 1337 ft 96 kts 151°
2026-04-26 21:34 28.10516 -81.77231 829 ft 81 kts 150°
2026-04-26 21:34 28.10283 -81.76713 762 ft 78 kts 134°
2026-04-26 21:34 28.09999 -81.76191 1042 ft 83 kts 134°
2026-04-26 21:35 28.09402 -81.75809 1310 ft 114 kts 156°
2026-04-26 21:35 28.08709 -81.75354 1078 ft 111 kts 158°
2026-04-26 21:35 28.08074 -81.74899 1015 ft 110 kts 155°
2026-04-26 21:35 28.07416 -81.74348 855 ft 124 kts 148°
2026-04-26 21:36 28.06711 -81.73745 843 ft 131 kts 151°
2026-04-26 21:36 28.06142 -81.73458 733 ft 141 kts 163°
2026-04-26 21:36 28.04867 -81.72950 1023 ft 154 kts 164°
2026-04-26 21:36 28.03831 -81.72508 1109 ft 160 kts 164°
2026-04-26 21:37 28.02912 -81.72446 1196 ft 79 kts 173°
2026-04-26 21:37 28.02524 -81.72163 1703 ft 39 kts 234°
2026-04-26 21:37 28.02340 -81.72136 2092 ft 21 kts 230°
2026-04-26 21:37 28.02083 -81.72133 1654 ft 55 kts 216°
2026-04-26 21:38 28.01766 -81.72221 989 ft 40 kts 212°
2026-04-26 21:38 28.01410 -81.72428 907 ft 70 kts 214°
2026-04-26 21:38 28.00779 -81.72452 967 ft 112 kts 189°
2026-04-26 21:38 27.99930 -81.72658 698 ft 130 kts 197°
2026-04-26 21:39 27.99026 -81.72833 833 ft 137 kts 195°
2026-04-26 21:39 27.98018 -81.72981 960 ft 154 kts 191°
2026-04-26 21:39 27.96889 -81.73105 1009 ft 170 kts 189°
2026-04-26 21:39 27.95697 -81.73195 1047 ft 173 kts 188°
2026-04-26 21:40 27.94520 -81.73308 1057 ft 157 kts 191°
2026-04-26 21:40 27.93575 -81.73354 1145 ft 124 kts 191°
2026-04-26 21:40 27.92828 -81.73551 1575 ft 99 kts 200°
2026-04-26 21:40 27.92263 -81.73671 1400 ft 66 kts 198°
2026-04-26 21:41 27.91913 -81.73642 1220 ft 34 kts 194°
2026-04-26 21:41 27.91653 -81.73861 1018 ft 90 kts 232°
2026-04-26 21:41 27.90829 -81.74385 1090 ft 162 kts 216°
2026-04-26 21:41 27.89849 -81.75129 1146 ft 153 kts 210°
2026-04-26 21:42 27.89463 -81.75244 2076 ft 30 kts 207°
2026-04-26 21:42 27.88960 -81.75512 1332 ft 120 kts 212°
2026-04-26 21:42 27.88087 -81.76000 973 ft 155 kts 210°
2026-04-26 21:42 27.87112 -81.76484 1142 ft 144 kts 211°
2026-04-26 21:43 27.86453 -81.77313 1309 ft 137 kts 222°
2026-04-26 21:43 27.85789 -81.77652 1866 ft 83 kts 223°
2026-04-26 21:43 27.85424 -81.77959 917 ft 39 kts 221°
2026-04-26 21:43 27.85172 -81.78034 1024 ft 43 kts 218°
2026-04-26 21:44 27.84833 -81.78392 1140 ft 99 kts 229°
2026-04-26 21:44 27.84145 -81.79009 875 ft 145 kts 219°
2026-04-26 21:44 27.83287 -81.79688 1059 ft 155 kts 218°
2026-04-26 21:44 27.82461 -81.80374 1225 ft 114 kts 226°
2026-04-26 21:45 27.82165 -81.80581 1539 ft 20 kts 248°
2026-04-26 21:45 27.81676 -81.80633 1423 ft 101 kts 216°
2026-04-26 21:45 27.81143 -81.81155 822 ft 98 kts 235°
2026-04-26 21:45 27.80830 -81.81768 1192 ft 89 kts 247°
2026-04-26 21:46 27.80631 -81.82533 1203 ft 115 kts 252°
2026-04-26 21:46 27.80444 -81.83474 853 ft 129 kts 264°
2026-04-26 21:46 27.80317 -81.84386 1277 ft 97 kts 259°
2026-04-26 21:46 27.80147 -81.84830 1405 ft 57 kts 250°
2026-04-26 21:47 27.80118 -81.85603 1133 ft 124 kts 253°
2026-04-26 21:47 27.79955 -81.86300 1223 ft 69 kts 259°
2026-04-26 21:47 27.79977 -81.86845 1065 ft 86 kts 272°
2026-04-26 21:47 27.80020 -81.87489 1225 ft 71 kts 272°
2026-04-26 21:48 27.79977 -81.88116 925 ft 87 kts 267°
2026-04-26 21:48 27.80092 -81.88715 1094 ft 79 kts 284°
2026-04-26 21:48 27.80463 -81.89318 1097 ft 110 kts 299°
2026-04-26 21:48 27.80894 -81.90050 1214 ft 108 kts 303°
2026-04-26 21:49 27.81328 -81.90481 552 ft 66 kts 316°
2026-04-26 21:49 27.81619 -81.90592 811 ft 44 kts 325°
2026-04-26 21:49 27.81836 -81.91118 796 ft 96 kts 299°
2026-04-26 21:49 27.82363 -81.91890 984 ft 137 kts 309°
2026-04-26 21:50 27.82966 -81.92664 1014 ft 127 kts 309°
2026-04-26 21:50 27.83331 -81.93151 1116 ft 117 kts 313°
2026-04-26 21:50 27.83998 -81.93607 1069 ft 61 kts 318°
2026-04-26 21:50 27.84339 -81.93931 1131 ft 77 kts 314°
2026-04-26 21:51 27.84655 -81.94365 1117 ft 78 kts 303°
2026-04-26 21:51 27.84985 -81.94929 1054 ft 84 kts 299°
2026-04-26 21:51 27.85394 -81.95610 860 ft 118 kts 302°
2026-04-26 21:51 27.85947 -81.96375 954 ft 134 kts 310°
2026-04-26 21:52 27.86463 -81.97008 1124 ft 103 kts 305°
2026-04-26 21:52 27.86899 -81.97660 1417 ft 77 kts 307°
2026-04-26 21:52 27.87299 -81.98151 1154 ft 93 kts 304°
2026-04-26 21:52 27.87641 -81.98646 1096 ft 66 kts 305°
2026-04-26 21:53 27.87994 -81.99138 896 ft 79 kts 305°
2026-04-26 21:53 27.88311 -81.99601 889 ft 76 kts 304°
2026-04-26 21:53 27.88706 -82.00131 1025 ft 107 kts 305°
2026-04-26 21:53 27.89152 -82.00791 1000 ft 83 kts 303°
2026-04-26 21:54 27.89524 -82.01280 935 ft 91 kts 308°
2026-04-26 21:54 27.90185 -82.01529 995 ft 123 kts 343°
2026-04-26 21:54 27.91114 -82.01403 1189 ft 144 kts
2026-04-26 21:54 27.92034 -82.01205 1055 ft 120 kts
2026-04-26 21:55 27.92650 -82.01098 931 ft 63 kts 360°
2026-04-26 21:55 27.93273 -82.01080 872 ft 114 kts 356°
2026-04-26 21:55 27.94184 -82.01141 1135 ft 137 kts 352°
2026-04-26 21:55 27.94877 -82.01181 733 ft 54 kts 353°
2026-04-26 21:56 27.95351 -82.01153 1071 ft 92 kts 357°
2026-04-26 21:56 27.96125 -82.01304 829 ft 134 kts 347°
2026-04-26 21:56 27.96926 -82.01503 619 ft 63 kts 325°
2026-04-26 21:56 27.97115 -82.01555 604 ft 47 kts 338°
2026-04-26 21:57 27.97595 -82.01590 794 ft 62 kts 341°
2026-04-26 21:57 27.97834 -82.01681 449 ft 17 kts 354°
2026-04-26 21:57 27.98100 -82.01596 334 ft 38 kts
2026-04-26 21:57 27.98206 -82.01610 170 ft 5 kts 359°
2026-04-26 21:58 27.98253 -82.01606 163 ft 6 kts
2026-04-26 21:58 27.98320 -82.01577 146 ft 17 kts
2026-04-26 21:58 27.98348 -82.01574 140 ft 0 kts
2026-04-26 22:00 27.98350 -82.01574 140 ft 0 kts 341°
2026-04-26 22:00 27.98360 -82.01577 141 ft 2 kts 352°
2026-04-26 22:01 27.98384 -82.01581 142 ft 6 kts 356°
2026-04-26 22:01 27.98405 -82.01582 143 ft 8 kts 358°
2026-04-26 22:01 27.98479 -82.01581 144 ft 14 kts
2026-04-26 22:01 27.98529 -82.01575 144 ft 3 kts 359°
2026-04-26 22:02 27.98558 -82.01569 144 ft 6 kts 360°
2026-04-26 22:02 27.98615 -82.01575 145 ft 7 kts 345°
2026-04-26 22:02 27.98644 -82.01588 146 ft 2 kts 335°
2026-04-26 22:02 27.98659 -82.01595 146 ft 3 kts 338°
2026-04-26 22:03 27.98674 -82.01601 146 ft 5 kts 329°
2026-04-26 22:03 27.98693 -82.01618 147 ft 2 kts 320°
2026-04-26 22:04 27.98695 -82.01620 147 ft 1 kts 317°
2026-04-26 22:04 27.98695 -82.01621 146 ft 0 kts 318°
2026-04-26 22:05 27.98715 -82.01630 147 ft 8 kts 349°
2026-04-26 22:05 27.98774 -82.01623 146 ft 6 kts 41°
2026-04-26 22:06 27.98795 -82.01600 145 ft 2 kts 42°
2026-04-26 22:06 27.98795 -82.01591 145 ft 1 kts 142°
2026-04-26 22:06 27.98783 -82.01579 145 ft 2 kts 135°
2026-04-26 22:06 27.98780 -82.01577 145 ft 0 kts 133°